User: anonymous   Login
Location: Unspecified
(0.0000°N, 0.0000°E)
Time: 05:06:38
(UTC+00:00)
Language:

VESSELSAT 2 - Orbit

View from above orbital plane
View from above orbital plane
View from above satellite
View from above satellite

Ground track
Ground track

The orbit is defined by the following mean orbital elements,

1 38047U 12001B   16300.92863863  .18489825  26156-5  23054-3 0  9998
2 38047  97.3971  76.7789 0011130 260.8276  99.6698 16.49214973270564
Epoch (UTC): 26 October 2016 22:17:14
Eccentricity: 0.0011130
inclination: 97.3971°
perigee height: 134 km
apogee height: 148 km
right ascension of ascending node: 76.7789°
argument of perigee: 260.8276°
revolutions per day: 16.49214973
mean anomaly at epoch: 99.6698°

The dashed part of the orbit path shows where the satellite is in the earth's shadow,  

DLR